This is the latest recevied weather packets stored in our database for station/object CE3TDM-10. If no packets are shown the sender has not sent any weather packets the latest 10 day(s).
| Time | Temp. | Humidity | Pressure | Rain* | Wind** | Luminosity | Snow |
|---|---|---|---|---|---|---|---|
| 1788478331 | 24.44° C | 35% | 925.2 hPa | - | - | - | - |
| 1788477431 | 25° C | 34% | 925 hPa | - | - | - | - |
| 1788476531 | 25° C | 34% | 925 hPa | - | - | - | - |
| 1788475631 | 25° C | 34% | 925 hPa | - | - | - | - |
| 1788474731 | 25° C | 34% | 924.8 hPa | - | - | - | - |
| 1788473831 | 25.56° C | 33% | 924.7 hPa | - | - | - | - |
| 1788471131 | 26.11° C | 33% | 924.6 hPa | - | - | - | - |
| 1788470231 | 26.67° C | 34% | 924.5 hPa | - | - | - | - |
| 1788469331 | 26.67° C | 33% | 924.5 hPa | - | - | - | - |
| 1788468431 | 26.67° C | 33% | 924.4 hPa | - | - | - | - |
| 1788466630 | 27.22° C | 32% | 924.3 hPa | - | - | - | - |
| 1788465730 | 27.22° C | 32% | 924.3 hPa | - | - | - | - |
| 1788464830 | 27.78° C | 32% | 924.2 hPa | - | - | - | - |
| 1788463930 | 28.89° C | 32% | 924.3 hPa | - | - | - | - |
| 1788463030 | 30° C | 31% | 924.3 hPa | - | - | - | - |
| 1788462130 | 31.11° C | 32% | 924.3 hPa | - | - | - | - |
| 1788461230 | 31.11° C | 32% | 924.3 hPa | - | - | - | - |
| 1788460330 | 30.56° C | 32% | 924.5 hPa | - | - | - | - |
| 1788459430 | 30.56° C | 32% | 924.5 hPa | - | - | - | - |
| 1788457630 | 32.22° C | 31% | 924.8 hPa | - | - | - | - |
| 1788456730 | 33.33° C | 32% | 924.9 hPa | - | - | - | - |
| 1788455829 | 32.78° C | 33% | 924.9 hPa | - | - | - | - |
| 1788454029 | 31.11° C | 33% | 925.2 hPa | - | - | - | - |
| 1788453129 | 31.11° C | 33% | 925.4 hPa | - | - | - | - |
| 1788452229 | 31.11° C | 34% | 925.5 hPa | - | - | - | - |
* Rain since midnight (hover to see other rain measurements)
** Current wind speed in m/s (hover to see current wind gust speed)